FLOCK 2K-19 (42886 NORAD) Tracking and Keplerian Element Data

This shows tracking and keplerian element data for the satellite.

Feedback or suggestion? Click here.




ElementValue
Catalog42886
NameFLOCK 2K-19
Epoch Orbit23587
Epoch Day268.51575444
Epoch Year2021
RAAN116.5648
Inclination96.8405
Eccentricity0.0010837
Argument of Perigee59.4904
Mean Anonmoly300.7416
Mean Motion15.47703612
Decay Rate0.0002417
L11 42886U 17042BP 21268.51575444 .00024170 00000-0 46711-3 0 9992
L22 42886 96.8405 116.5648 0010837 59.4904 300.7416 15.47703612235875

Live tracking and technical data element details for FLOCK 2K-19 (NORAD 42886). FLOCK 2K-19 can be tracked NOW for your location showing map with azimuth and elevation plus other details from your city location.

Track the satellite on the map from your city or location and see movement details for azimuth, elevation, latitude, longitude, range, height, and movement on the map or in text.







IsCatalogInMostPopularTable: catalog: 42886, numindb: 542
Update: records affected: 1



GetName: 42886 FLOCK 2K-19

Hit Count: updated at: Mon, 27 Sep 2021 00:45:00 GMT